Location: Hylvaty SDH
(49.9612°N, 16.4057°E)
Time: 21:12:08
(UTC+01:00)

Vanguard 1 Rocket - Pass Details

Date: 06 October 2020
Orbit: 656 x 4221 km, 34.3° (Epoch: 30 October)

Event Time Altitude Azimuth Distance (km) Brightness Sun altitude
Rises 16:03:02 0° 209° (SSW) 3,980 11.8 19.7°
Reaches altitude 10° 16:05:55 10° 195° (SSW) 3,378 11.2 19.4°
Maximum altitude 16:12:43 25° 144° (SE) 3,232 10.3 18.4°
Drops below altitude 10° 16:23:23 10° 98° (E) 5,520 11.0 17.0°
Sets 16:29:59 0° 89° (E) 7,194 11.4 16.1°
